TimeEET,TemperatureF,Dew PointF,Humidity,Sea Level PressureIn,VisibilityMPH,Wind Direction,Wind SpeedMPH,Gust SpeedMPH,PrecipitationIn,Events,Conditions,WindDirDegrees,DateUTC
12:20 AM,37.4,33.8,87,30.04,6.2,WNW,3.5,-,N/A,,Partly Cloudy,300,2013-03-01 22:20:00
12:50 AM,37.4,33.8,87,30.04,6.2,West,4.6,-,N/A,,Partly Cloudy,280,2013-03-01 22:50:00
1:20 AM,37.4,33.8,87,30.04,6.2,West,3.5,-,N/A,,Partly Cloudy,280,2013-03-01 23:20:00
1:50 AM,37.4,35.6,93,30.01,6.2,WNW,5.8,-,N/A,,Partly Cloudy,300,2013-03-01 23:50:00
2:20 AM,37.4,33.8,87,30.01,6.2,West,3.5,-,N/A,,Partly Cloudy,280,2013-03-02 00:20:00
2:50 AM,39.2,37.4,93,30.01,6.2,WNW,2.3,-,N/A,,Partly Cloudy,290,2013-03-02 00:50:00
3:20 AM,37.4,35.6,93,30.01,6.2,WNW,2.3,-,N/A,,Partly Cloudy,290,2013-03-02 01:20:00
3:50 AM,37.4,33.8,87,30.01,6.2,WNW,4.6,-,N/A,,Partly Cloudy,290,2013-03-02 01:50:00
4:20 AM,37.4,33.8,87,29.98,6.2,WNW,4.6,-,N/A,,Partly Cloudy,290,2013-03-02 02:20:00
4:50 AM,35.6,33.8,93,29.98,6.2,NW,2.3,-,N/A,,Partly Cloudy,320,2013-03-02 02:50:00
5:20 AM,35.6,33.8,93,29.98,6.2,Variable,1.2,-,N/A,,Partly Cloudy,0,2013-03-02 03:20:00
5:50 AM,37.4,33.8,87,29.98,6.2,West,2.3,-,N/A,,Partly Cloudy,270,2013-03-02 03:50:00
6:20 AM,39.2,35.6,87,29.98,6.2,WNW,2.3,-,N/A,,Scattered Clouds,300,2013-03-02 04:20:00
6:50 AM,37.4,35.6,93,29.98,6.2,North,1.2,-,N/A,,Scattered Clouds,360,2013-03-02 04:50:00
7:20 AM,39.2,33.8,81,29.98,6.2,West,2.3,-,N/A,,Scattered Clouds,260,2013-03-02 05:20:00
7:50 AM,39.2,35.6,87,29.98,6.2,West,2.3,-,N/A,,Mostly Cloudy,270,2013-03-02 05:50:00
8:20 AM,44.6,39.2,81,29.98,6.2,Variable,1.2,-,N/A,,Mostly Cloudy,0,2013-03-02 06:20:00
8:50 AM,50.0,42.8,76,29.98,6.2,Calm,Calm,-,N/A,,Mostly Cloudy,0,2013-03-02 06:50:00
9:20 AM,50.0,44.6,82,29.98,6.2,Calm,Calm,-,N/A,,Mostly Cloudy,0,2013-03-02 07:20:00
9:50 AM,51.8,42.8,71,29.98,5.0,Variable,1.2,-,N/A,,Mostly Cloudy,0,2013-03-02 07:50:00
10:20 AM,53.6,42.8,67,29.98,5.6,Variable,1.2,-,N/A,,Mostly Cloudy,0,2013-03-02 08:20:00
10:50 AM,53.6,42.8,67,29.98,6.2,Variable,2.3,-,N/A,,Mostly Cloudy,0,2013-03-02 08:50:00
11:20 AM,55.4,42.8,63,29.98,5.0,Variable,3.5,-,N/A,,Mostly Cloudy,0,2013-03-02 09:20:00
11:50 AM,55.4,42.8,63,29.98,5.0,Variable,2.3,-,N/A,,Mostly Cloudy,0,2013-03-02 09:50:00
12:20 PM,55.4,42.8,63,29.95,5.6,ENE,5.8,-,N/A,,Mostly Cloudy,70,2013-03-02 10:20:00
12:50 PM,55.4,42.8,63,29.95,5.6,ENE,8.1,-,N/A,,Mostly Cloudy,70,2013-03-02 10:50:00
1:20 PM,55.4,42.8,63,29.95,5.6,ENE,6.9,-,N/A,,Mostly Cloudy,70,2013-03-02 11:20:00
1:50 PM,57.2,44.6,63,29.92,6.2,ENE,8.1,-,N/A,,Mostly Cloudy,70,2013-03-02 11:50:00
2:20 PM,55.4,42.8,63,29.92,6.2,ENE,8.1,-,N/A,,Mostly Cloudy,60,2013-03-02 12:20:00
2:50 PM,55.4,44.6,67,29.92,6.2,East,6.9,-,N/A,,Mostly Cloudy,90,2013-03-02 12:50:00
3:20 PM,55.4,44.6,67,29.92,6.2,East,6.9,-,N/A,,Mostly Cloudy,100,2013-03-02 13:20:00
3:50 PM,57.2,42.8,59,29.92,6.2,East,6.9,-,N/A,,Mostly Cloudy,90,2013-03-02 13:50:00
4:20 PM,55.4,42.8,63,29.92,6.2,East,5.8,-,N/A,,Mostly Cloudy,90,2013-03-02 14:20:00
4:50 PM,55.4,42.8,63,29.92,6.2,East,4.6,-,N/A,,Mostly Cloudy,90,2013-03-02 14:50:00
5:20 PM,53.6,42.8,67,29.92,6.2,East,4.6,-,N/A,,Mostly Cloudy,90,2013-03-02 15:20:00
5:50 PM,53.6,41.0,62,29.95,6.2,Variable,2.3,-,N/A,,Mostly Cloudy,0,2013-03-02 15:50:00
6:20 PM,51.8,42.8,71,29.95,6.2,North,4.6,-,N/A,,Mostly Cloudy,10,2013-03-02 16:20:00
6:50 PM,51.8,42.8,71,29.92,6.2,North,5.8,-,N/A,,Mostly Cloudy,10,2013-03-02 16:50:00
7:20 PM,53.6,41.0,62,29.95,6.2,North,6.9,-,N/A,,Mostly Cloudy,10,2013-03-02 17:20:00
7:50 PM,53.6,42.8,67,29.95,6.2,North,5.8,-,N/A,,Mostly Cloudy,10,2013-03-02 17:50:00
8:20 PM,53.6,44.6,72,29.95,6.2,North,5.8,-,N/A,,Mostly Cloudy,10,2013-03-02 18:20:00
8:50 PM,51.8,42.8,71,29.95,6.2,NNE,9.2,-,N/A,,Mostly Cloudy,20,2013-03-02 18:50:00
9:20 PM,51.8,42.8,71,29.95,6.2,North,5.8,-,N/A,,Mostly Cloudy,360,2013-03-02 19:20:00
9:50 PM,51.8,42.8,71,29.92,6.2,NNE,11.5,-,N/A,,Mostly Cloudy,20,2013-03-02 19:50:00
10:20 PM,51.8,44.6,76,29.92,6.2,NNE,10.4,-,N/A,,Mostly Cloudy,20,2013-03-02 20:20:00
10:50 PM,51.8,44.6,76,29.92,6.2,NE,12.7,-,N/A,,Mostly Cloudy,40,2013-03-02 20:50:00
11:20 PM,53.6,46.4,77,29.92,6.2,NE,13.8,-,N/A,,Mostly Cloudy,40,2013-03-02 21:20:00
11:50 PM,53.6,46.4,77,29.89,6.2,NE,13.8,-,N/A,,Mostly Cloudy,40,2013-03-02 21:50:00